{"data":{"norad_id":66064,"intl_designator":"2025-235G","name":"STARLINK-35542","alt_names":[],"object_type":"PAYLOAD","status":"ACTIVE","operator":null,"country":"US","launch_date":"2025-10-19","launch_site_code":"AFETR","launch_vehicle":null,"mission":null,"orbit_class":"UNKNOWN","rcs_meters":null,"size_class":null,"mass_kg":null,"dimensions":null,"purposes":["comms"],"wikipedia_slug":null,"has_3d_model":false,"image_url":null,"decayed_at":null,"tle_current":{"epoch":"2026-05-25T00:10:38.666208Z","epoch_age_seconds":70327,"freshness":"FRESH","line1":"1 66064U 25235G   26145.00739197  .00014734  00000+0  50863-3 0  9996","line2":"2 66064  53.1587 250.9575 0001151  89.9814 270.1318 15.30197900 34603","mean_motion":15.301979,"eccentricity":0.0001151,"inclination_deg":53.1587,"raan_deg":250.9575,"arg_perigee_deg":89.9814,"mean_anomaly_deg":270.1318,"bstar":0.00050863,"rev_number":3460,"period_min":94.105474853939,"perigee_km":474.43251810307,"apogee_km":476.01016119286,"semimajor_km":6853.358339648,"source":"CELESTRAK","updated_at":"2026-05-25T13:38:21.021187Z"}}}